EHI
0 0 0 0 0 0 0 0 0 0 0 0 0 0 0 0 0 0 0 0 0 0 0 0 0 0 0 0 0 0 0 0 0 0 0 0 0 0 0 0 0 0 0 0
0 0 0 0 0 0 0 0 0 0 0 0 0 0 0 0 0 0 0 0 0 0 0 0 0 0 0 0 0 0 0 0 0 0 0 0 0 0 0 0 0 0 0 0
0 0 0 0 0 0 0 0 0 0 0 0 0 0 0 0 0 0 0 0 0 0 0 0 0 0 0 0 0 0 0 0 0 0 0 0 0 0 0 0 0 0 0 0
0 0 0 0 0 0 0 0 0 0 0 0 0 0 0 0 0 0 0 0 0 0 0 0 0 0 0 0 0 0 0 0 0 0 0 0 0 0 0 0 0 0 0 0
0 0 0 0 0 0 0 0 0 0 0 0 0 0 0 0 0 0 0 0 0 0 0 0 0 0 0 0 0 0 0 0 0 0 0 0 0 0 0 0 0 0 0 0
0 0 0 0 0 0 0 0 0 0 0 0 0 0 0 0 0 0 0 0 0 0 0 0 0 0 0 0 0 0 0 0 0 0 0 0 0 0 0 0 0 0 0 0
0 0 0 0 0 0 0 0 0 0 0 0 0 0 0 0 0 0 0 0 0 0 0 0 0 0 0 0 0 0 0 0 0 0 0 0 0 0 0 0 0 0 0 0
0 0 0 0 0 0 0 0 0 0 0 0 0 0 0 0 0 0 0 0 0 0 0 0 0 0 0 0 0 0 0 0 0 0 0 0 0 0 0 0 0 0 0 0
0 0 0 0 0 0 0 0 0 0 0 0 0 0 0 0 0 0 0 0 0 0 0 0 0 0 0 0 0 0 0 0 0 0 0 0 0 0 0 0 0 0 0 0
0 0 0 0 0 0 0 0 0 0 0 0 0 0 0 0 0 0 0 0 0 0 0 0 0 0 0 0 0 0 0 0 0 0 0 0 0 0 0 0 0 0 0 0
0 0 0 0 0 0 0 0 0 0 0 0 0 0 0 0 0 0 0 0 0 0 0 0 0 0 0 0 0 0 0 0 0 0 0 0 0 0 0 0 0 0 0 0
0 0 0 0 0 0 0 0 0 0 0 0 0 0 0 0 0 0 0 0 0 0 0 0 0 0 0 0 0 0 0 0 0 0 0 0 0 0 0 0 0 0 0 0
0 0 0 0 0 0 0 0 0 0 0 0 0 0 0 0 0 0 0 0 0 0 0 0 0 0 0 0 0 0 0 0 0 0 0 0 0 0 0 0 0 0 0 0
0 0 0 0 0 0 0 0 0 0 0 0 0 0 0 0 0 0 0 0 0 0 0 0 0 0 0 0 0 0 0 0 0 0 0 0 0 0 0 0 0 0 0 0
0 0 0 0 0 0 0 0 0 0 0 0 0 0 0 0 0 0 0 0 0 0 0 0 0 0 0 0 0 0 0 0 0 0 0 0 0 0 0 0 0 0 0 0
0 0 0 0 0 0 0 0 0 0 0 0 0 0 0 0 0 0 0 0 0 0 0 0 0 0 0 0 0 0 0 0 0 0 0 0 0 0 0 0 0 0 0 0
0 0 0 0 0 0 0 0 0 0 0 0 0 0 0 0 0 0 0 0 0 0 0 0 0 0 0 0 0 0 0 0 0 0 0 0 0 0 0 0 0 0 0 0
0 0 0 0 0 0 0 0 0 0 0 0 0 0 0 0 0 0 0 0 0 0 0 0 0 0 0 0 0 0 0 0 0 0 0 0 0 0 0 0 0 0 0 0
0 0 0 0 0 0 0 0 0 0 0 0 0 0 0 0 0 0 0 0 0 0 0 0 0 0 0 0 0 0 0 0 0 0 0 0 0 0 0 0 0 0 0 0
0 0 0 0 0 0 0 0 0 0 0 0 0 0 0 0 0 0 0 0 0 0 0 0 0 0 0 0 0 0 0 0 0 0 0 0 0 0 0 0 0 0 0 0
0 0 0 0 0 0 0 0 0 0 0 0 0 0 0 0 0 0 0 0 0 0 0 0 0 0 0 0 0 0 0 0 0 0 0 0 0 0 0 0 0 0 0 0
0 0 0 0 0 0 0 0 0 0 0 0 0 0 0 0 0 0 0 0 0 0 0 0 0 0 0 0 0 0 0 0 0 0 0 0 0 0 0 0 0 0 0 0
0 0 0 0 0 0 0 0 0 0 0 0 0 0 0 0 0 0 0 0 0 0 0 0 0 0 0 0 0 0 0 0 0 0 0 0 0 0 0 0 0 0 0 0
0 0 0 0 0 0 0 0 0 0 0 0 0 0 0 0 0 0 0 0 0 0 0 0 0 0 0 0 0 0 0 0 0 0 0 0 0 0 0 0 0 0 0 0
0 0 0 0 0 0 0 0 0 0 0 0 0 0 0 0 0 0 0 0 0 0 0 0 0 0 0 0 0 0 0 0 0 0 0 0 0 0 0 0 0 0 0 0
0 0 0 0 0 0 0 0 0 0 0 0 0 0 0 0 0 0 0 0 0 0 0 0 0 0 0 0 0 0 0 0 0 0 0 0 0 0 0 0 0 0 0 0
0 0 0 0 0 0 0 0 0 0 0 0 0 0 0 0 0 0 0 0 0 0 0 0 0 0 0 0 0 0 0 0 0 0 0 0 0 0 0 0 0 0 0 0
Wind_Speed
9 9 6 7 10 9 13 14 15 20 21 27 21 15 13 12 12 12 12 11 10 9 8 7 5 6 7 9 9 10 12 15 18 16 15 14 15 15 14 14 14 12 11 11
7 8 9 9 13 18 18 16 16 21 25 21 13 8 9 10 10 10 11 11 10 10 9 8 7 7 7 9 9 11 14 16 14 13 14 15 15 14 13 13 12 11 12 11
8 5 5 10 15 18 12 10 11 14 15 8 9 11 10 10 8 8 9 10 10 10 9 9 8 7 8 8 8 11 14 14 13 13 14 14 14 14 14 14 12 12 12 11
4 1 12 11 6 9 11 13 12 11 11 10 10 11 9 7 5 8 9 9 10 9 9 9 7 6 6 6 7 10 12 13 12 13 14 12 13 14 14 12 12 12 12 12
3 6 12 10 9 7 7 9 7 7 8 8 7 7 6 4 3 7 8 9 9 9 9 9 9 7 6 6 7 9 12 13 12 12 13 13 15 15 13 12 12 12 11 12
4 6 11 11 6 1 1 8 4 2 4 6 6 8 8 8 9 11 10 9 9 8 8 9 9 6 6 8 8 12 13 12 11 12 14 16 16 14 11 11 12 12 11 11
7 9 13 11 4 1 4 7 2 2 5 6 5 7 10 12 12 11 11 11 10 9 8 9 8 6 8 9 11 12 10 9 9 11 13 13 11 10 10 11 11 11 11 10
7 8 13 7 4 6 8 4 5 7 7 8 10 11 11 11 11 10 11 10 9 9 10 10 8 6 9 12 11 9 8 9 10 10 10 10 10 10 10 11 11 11 9 9
12 12 7 3 7 6 5 9 10 9 9 10 11 12 12 10 10 10 10 10 9 9 10 11 8 6 10 12 10 8 8 9 8 8 9 9 10 11 10 10 10 10 9 9
9 12 11 11 10 11 12 13 10 10 10 10 11 11 10 9 9 9 9 9 8 9 11 12 11 9 10 11 9 9 10 9 7 7 8 9 9 10 10 11 11 10 10 9
16 14 12 11 12 12 11 10 11 10 9 7 8 8 8 8 9 9 9 8 8 9 11 13 12 12 11 10 9 9 9 8 6 7 7 8 10 10 12 12 13 13 11 9
21 14 13 13 8 10 11 10 9 8 7 6 5 6 8 8 8 9 10 10 10 11 12 13 12 13 12 9 8 8 9 7 5 5 6 7 8 8 18 17 21 23 17 12
20 16 15 15 10 8 8 6 4 3 4 6 6 7 8 9 8 9 11 11 11 12 13 13 13 14 12 9 8 8 9 8 5 6 6 7 8 9 8 13 20 21 21 19
10 10 11 9 7 4 3 2 2 4 5 6 7 8 8 9 10 11 12 12 12 13 13 13 13 14 12 9 8 9 9 10 8 6 6 7 8 8 8 8 9 10 15 20
8 7 8 5 3 2 2 2 4 6 7 8 7 8 9 10 12 13 13 12 12 12 13 12 13 14 11 9 9 9 8 7 6 6 6 7 8 8 8 9 8 7 5 10
6 5 3 2 2 3 3 4 5 7 9 9 10 11 11 11 13 14 13 12 12 14 14 13 14 14 11 9 9 8 7 12 10 6 6 6 7 8 8 8 8 8 8 8
4 2 1 1 2 4 5 6 7 9 9 11 12 13 12 13 13 13 13 11 11 13 14 14 14 13 11 9 9 8 7 8 13 8 6 6 7 8 8 8 8 8 7 10
3 3 2 2 3 5 7 8 8 9 10 12 12 12 12 13 14 15 14 13 13 14 14 12 11 11 10 9 8 7 7 6 6 6 5 6 7 7 8 8 8 8 6 8
1 1 2 4 5 6 7 9 10 10 11 11 12 13 13 13 14 14 13 13 14 15 12 10 17 14 11 12 12 6 6 7 6 6 5 9 9 7 8 8 8 7 7 7
3 4 5 7 7 7 9 10 11 11 11 11 12 13 13 13 12 12 13 13 12 11 12 14 14 11 11 11 14 7 7 7 7 6 6 6 7 7 8 8 8 8 7 7
6 7 8 8 9 10 10 11 11 12 12 11 12 13 14 14 13 12 12 13 13 12 12 17 12 10 9 11 14 7 7 7 6 6 6 6 7 7 8 8 8 8 8 7
6 8 9 10 11 11 10 9 10 12 12 12 12 12 13 13 13 12 12 11 12 17 13 10 9 14 16 18 8 7 7 7 6 5 6 6 7 7 8 8 8 8 7 7
8 9 10 11 12 12 11 10 11 11 11 12 13 13 13 13 11 11 13 10 10 17 15 11 16 23 25 13 7 7 7 7 6 6 6 6 6 7 7 8 8 7 7 7
10 11 11 11 10 11 13 12 11 10 11 12 12 13 12 11 11 10 10 16 21 22 14 15 23 24 21 8 7 7 6 6 5 5 5 5 6 6 7 7 7 7 7 8
11 11 11 11 11 10 11 11 10 11 11 10 12 12 10 8 10 12 12 13 19 21 13 15 21 20 12 7 7 7 6 5 4 4 5 5 6 6 7 7 7 7 7 7
11 10 10 10 10 10 9 8 9 9 9 10 11 10 9 8 10 11 11 12 15 18 14 10 9 11 7 7 7 6 5 4 4 3 5 5 6 7 7 7 8 7 7 7
9 9 8 8 9 8 8 8 9 10 10 11 12 11 10 10 10 11 12 12 12 11 10 9 8 7 7 6 6 4 3 2 2 3 4 5 6 6 7 8 7 7 7 7
Wind_Direction
253 267 268 246 246 227 216 225 241 263 267 276 286 298 303 306 311 315 317 319 319 314 308 301 277 245 230 228 216 209 212 218 223 220 216 214 210 206 201 198 197 194 196 203
264 255 253 255 249 247 246 242 244 263 272 274 291 304 302 306 312 317 321 320 318 315 311 304 286 262 242 233 219 209 218 226 225 218 215 214 211 205 200 198 193 188 195 200
266 267 297 262 235 235 230 220 216 244 260 303 322 315 310 310 316 316 313 310 309 308 303 298 291 272 255 242 219 214 225 231 225 219 219 215 209 205 202 196 189 190 196 201
276 318 239 244 237 227 236 249 238 251 275 295 289 289 283 272 298 320 314 309 306 303 302 299 292 283 268 249 224 224 231 233 226 218 220 214 209 209 204 195 190 192 197 203
225 252 271 286 268 222 217 268 251 241 272 290 299 314 292 262 303 305 298 293 289 287 287 290 293 290 279 262 242 237 239 237 227 217 216 212 212 209 200 192 191 194 196 199
200 226 253 247 250 219 167 277 266 220 294 306 340 336 300 306 314 306 299 294 293 295 297 297 299 302 284 273 257 250 248 244 230 216 215 216 215 208 198 193 194 192 197 200
219 238 262 258 272 156 214 250 308 308 306 302 287 261 276 296 301 299 299 299 300 302 301 297 303 305 287 280 269 265 259 248 233 221 219 219 213 202 193 193 190 192 197 200
202 222 255 249 166 202 235 288 310 308 301 293 287 286 292 297 299 304 307 306 308 309 305 302 303 294 285 282 279 275 262 250 238 223 216 212 206 200 191 190 190 192 195 201
205 226 246 226 220 249 285 293 294 290 293 294 293 295 299 300 303 305 304 304 306 305 304 305 304 294 287 290 292 284 269 256 244 225 212 203 200 197 190 191 194 194 194 202
255 258 261 267 270 274 276 277 279 281 286 287 287 292 297 300 302 304 303 305 308 311 309 308 308 301 285 289 291 283 274 266 245 223 214 204 201 198 197 197 198 196 195 200
261 270 274 258 259 269 278 286 292 291 288 286 290 295 297 301 301 302 303 303 305 304 302 301 304 302 298 295 292 284 277 268 248 226 214 209 209 209 207 210 205 197 196 191
263 267 270 280 276 282 286 286 287 291 297 300 295 293 298 297 296 299 302 303 304 301 299 301 303 301 301 297 289 282 281 270 248 229 216 210 211 219 225 220 223 218 207 193
261 272 274 284 287 283 280 284 291 295 293 298 300 294 294 295 296 299 300 301 299 298 297 299 300 299 299 297 290 279 274 271 252 232 219 213 210 212 220 225 225 221 213 202
267 278 282 283 285 291 291 308 312 301 292 285 286 292 294 294 295 299 298 296 295 296 296 296 296 296 297 296 291 284 277 271 261 238 222 216 212 211 209 207 207 211 214 208
262 256 262 276 289 311 331 325 319 310 306 304 298 297 298 298 299 297 297 297 296 295 294 295 296 296 298 296 291 288 282 273 261 243 227 218 212 208 207 208 209 199 184 204
280 286 277 267 275 293 306 307 304 301 302 301 302 301 297 293 291 292 293 294 296 298 298 297 294 293 295 294 293 291 283 280 276 253 231 219 210 207 205 205 205 198 194 191
256 261 242 271 284 290 288 285 283 287 292 294 295 297 298 298 296 295 295 294 289 288 289 288 286 289 290 287 286 288 286 285 281 264 230 216 209 207 205 205 204 202 198 192
193 190 199 242 270 285 292 291 286 286 287 288 293 296 296 296 295 296 298 300 298 294 289 283 281 286 286 286 284 282 282 278 267 254 233 217 212 206 204 206 205 201 189 194
110 264 281 282 278 276 278 283 286 284 286 290 291 290 288 287 286 289 294 297 298 297 293 288 300 303 294 292 295 279 275 274 266 253 235 225 219 206 203 203 201 197 187 186
310 299 290 285 283 276 276 280 283 285 286 287 288 289 290 290 291 293 294 290 282 277 282 290 294 290 289 290 295 281 271 265 259 248 231 219 211 202 199 199 197 192 188 189
295 291 287 282 281 277 274 277 281 284 286 287 285 286 288 291 292 292 293 294 289 285 287 294 295 290 292 292 296 283 271 264 254 240 227 216 210 202 196 194 193 191 189 188
287 284 282 281 281 283 280 277 279 283 286 287 286 286 290 293 294 291 282 278 285 293 298 293 291 293 299 302 293 284 275 266 252 234 220 212 205 199 194 190 188 188 186 182
281 279 280 280 280 281 284 283 282 282 282 284 288 289 289 288 290 292 294 290 291 297 300 292 293 300 306 307 292 286 279 267 251 232 217 206 199 194 190 186 184 182 178 175
284 284 280 280 283 285 287 285 282 281 279 281 280 279 281 288 290 283 280 291 298 300 298 293 298 304 310 304 293 289 281 267 252 229 209 197 190 185 181 178 177 175 173 169
280 282 282 284 284 283 282 285 286 285 284 283 282 281 277 272 279 290 292 292 295 301 298 297 301 305 305 295 292 289 281 266 251 219 197 187 182 178 174 171 171 170 169 169
277 279 279 276 275 279 282 283 282 283 286 289 290 289 287 285 283 287 290 291 291 296 298 294 296 299 295 292 291 287 281 276 263 222 188 179 174 170 167 166 164 165 164 162
274 276 279 280 277 272 271 273 277 281 283 286 290 293 293 294 294 294 294 294 296 296 295 294 293 290 291 292 292 288 276 257 231 196 175 168 164 163 162 159 158 157 155 156